Total_Precipitation_Accumulation
0.30 0.28 0.38 0.60 0.69 0.66 0.65 0.72 0.95 0.96 0.86 0.81 0.82 0.84 0.80 0.83 0.81 0.73 0.68 0.69 0.73 0.79 0.81 0.78 0.76 0.82 0.86 0.93 1.04 1.20 1.34 1.33 1.20 1.03 0.92 0.86 0.81 0.73 0.70 0.69 0.71 0.78 0.83 0.84
0.20 0.18 0.27 0.41 0.51 0.52 0.50 0.52 0.61 0.68 0.67 0.57 0.54 0.57 0.58 0.61 0.57 0.53 0.48 0.44 0.44 0.46 0.46 0.45 0.42 0.41 0.44 0.53 0.69 0.93 1.19 1.18 0.98 0.82 0.69 0.63 0.66 0.68 0.69 0.66 0.69 0.74 0.71 0.73
0.28 0.22 0.24 0.45 0.45 0.42 0.44 0.37 0.40 0.46 0.45 0.40 0.43 0.49 0.50 0.56 0.57 0.45 0.36 0.34 0.33 0.32 0.32 0.31 0.31 0.31 0.33 0.41 0.53 0.71 0.83 0.82 0.72 0.62 0.59 0.62 0.66 0.61 0.63 0.65 0.65 0.66 0.66 0.65
0.29 0.32 0.56 0.74 0.61 0.51 0.48 0.30 0.25 0.27 0.28 0.31 0.41 0.44 0.45 0.44 0.45 0.44 0.33 0.25 0.24 0.24 0.25 0.29 0.30 0.34 0.38 0.44 0.49 0.53 0.56 0.58 0.54 0.52 0.53 0.57 0.59 0.58 0.65 0.70 0.68 0.67 0.69 0.68
0.40 0.47 0.66 0.69 0.59 0.58 0.58 0.42 0.23 0.21 0.21 0.20 0.20 0.23 0.25 0.26 0.25 0.25 0.21 0.17 0.16 0.15 0.16 0.19 0.19 0.20 0.22 0.25 0.27 0.28 0.27 0.27 0.29 0.30 0.33 0.35 0.37 0.43 0.55 0.62 0.65 0.69 0.74 0.74
0.43 0.53 0.67 0.53 0.33 0.34 0.49 0.62 0.23 0.15 0.15 0.14 0.13 0.19 0.20 0.21 0.21 0.18 0.15 0.16 0.15 0.13 0.14 0.15 0.15 0.15 0.14 0.15 0.16 0.17 0.17 0.17 0.19 0.21 0.21 0.21 0.25 0.30 0.36 0.37 0.44 0.55 0.57 0.59
0.40 0.59 0.78 0.58 0.36 0.32 0.56 0.61 0.21 0.13 0.12 0.12 0.14 0.14 0.14 0.17 0.19 0.16 0.14 0.15 0.16 0.15 0.15 0.16 0.17 0.15 0.14 0.15 0.15 0.18 0.21 0.24 0.23 0.22 0.23 0.24 0.26 0.29 0.31 0.32 0.37 0.42 0.46 0.50
0.49 0.79 0.99 0.75 0.51 0.49 0.42 0.22 0.14 0.10 0.10 0.12 0.12 0.12 0.14 0.16 0.17 0.15 0.14 0.14 0.15 0.16 0.17 0.19 0.17 0.15 0.15 0.16 0.16 0.17 0.21 0.23 0.25 0.25 0.25 0.26 0.28 0.31 0.34 0.35 0.36 0.38 0.40 0.45
0.45 0.69 0.71 0.62 0.48 0.37 0.29 0.18 0.10 0.09 0.10 0.14 0.15 0.14 0.17 0.18 0.16 0.16 0.16 0.14 0.14 0.15 0.14 0.15 0.16 0.15 0.14 0.16 0.18 0.19 0.20 0.22 0.24 0.25 0.25 0.23 0.26 0.31 0.34 0.37 0.38 0.41 0.45 0.51
0.24 0.31 0.32 0.31 0.29 0.21 0.18 0.14 0.10 0.10 0.14 0.18 0.19 0.19 0.17 0.17 0.18 0.17 0.16 0.14 0.13 0.14 0.15 0.16 0.17 0.17 0.18 0.18 0.17 0.18 0.22 0.25 0.26 0.25 0.25 0.25 0.27 0.31 0.34 0.37 0.41 0.45 0.50 0.54
0.22 0.21 0.18 0.18 0.19 0.17 0.13 0.10 0.09 0.11 0.15 0.18 0.19 0.19 0.17 0.17 0.19 0.18 0.15 0.15 0.17 0.18 0.16 0.17 0.19 0.21 0.23 0.24 0.21 0.19 0.20 0.22 0.22 0.24 0.26 0.27 0.28 0.30 0.32 0.34 0.42 0.50 0.55 0.58
0.23 0.18 0.19 0.20 0.17 0.13 0.12 0.10 0.09 0.09 0.12 0.14 0.16 0.17 0.17 0.15 0.17 0.19 0.19 0.17 0.19 0.20 0.20 0.19 0.20 0.22 0.23 0.26 0.27 0.27 0.25 0.23 0.22 0.22 0.25 0.27 0.28 0.29 0.32 0.33 0.38 0.42 0.44 0.46
0.16 0.14 0.13 0.14 0.15 0.13 0.11 0.09 0.09 0.09 0.11 0.12 0.14 0.16 0.18 0.16 0.15 0.17 0.18 0.17 0.17 0.18 0.18 0.18 0.18 0.17 0.17 0.20 0.22 0.24 0.25 0.25 0.24 0.23 0.24 0.27 0.29 0.28 0.31 0.31 0.30 0.33 0.36 0.39
0.11 0.12 0.13 0.11 0.12 0.11 0.11 0.10 0.09 0.08 0.09 0.10 0.12 0.14 0.15 0.15 0.13 0.13 0.14 0.15 0.16 0.16 0.16 0.16 0.17 0.17 0.17 0.17 0.19 0.22 0.23 0.24 0.25 0.28 0.28 0.30 0.34 0.36 0.38 0.40 0.40 0.34 0.31 0.33
0.10 0.11 0.12 0.11 0.11 0.10 0.11 0.11 0.12 0.11 0.12 0.13 0.13 0.14 0.14 0.14 0.14 0.13 0.14 0.15 0.15 0.16 0.16 0.18 0.17 0.16 0.17 0.17 0.18 0.18 0.19 0.22 0.26 0.33 0.37 0.36 0.39 0.45 0.46 0.40 0.35 0.35 0.34 0.33
0.12 0.12 0.12 0.13 0.14 0.13 0.11 0.11 0.12 0.13 0.13 0.13 0.15 0.17 0.18 0.16 0.14 0.13 0.13 0.14 0.14 0.16 0.17 0.18 0.18 0.19 0.18 0.16 0.15 0.15 0.17 0.22 0.25 0.30 0.33 0.34 0.37 0.41 0.42 0.41 0.39 0.40 0.41 0.43
0.14 0.14 0.15 0.17 0.17 0.15 0.13 0.13 0.14 0.15 0.16 0.16 0.18 0.19 0.19 0.18 0.17 0.16 0.15 0.14 0.14 0.16 0.16 0.17 0.19 0.20 0.20 0.17 0.17 0.17 0.19 0.22 0.26 0.27 0.29 0.30 0.34 0.38 0.41 0.42 0.43 0.44 0.44 0.48
0.16 0.15 0.16 0.18 0.19 0.16 0.14 0.13 0.14 0.16 0.18 0.20 0.21 0.22 0.23 0.23 0.23 0.21 0.20 0.19 0.18 0.19 0.20 0.21 0.22 0.22 0.21 0.20 0.21 0.21 0.22 0.24 0.26 0.29 0.31 0.31 0.35 0.40 0.44 0.43 0.42 0.43 0.43 0.47
0.21 0.19 0.18 0.19 0.19 0.19 0.17 0.16 0.15 0.17 0.19 0.19 0.21 0.23 0.24 0.23 0.23 0.22 0.22 0.23 0.22 0.22 0.19 0.18 0.21 0.19 0.18 0.20 0.23 0.25 0.28 0.30 0.31 0.32 0.32 0.33 0.35 0.40 0.43 0.42 0.41 0.42 0.44 0.46
0.23 0.20 0.19 0.18 0.18 0.19 0.18 0.17 0.17 0.19 0.21 0.20 0.20 0.20 0.22 0.21 0.21 0.21 0.23 0.23 0.22 0.20 0.15 0.16 0.17 0.18 0.19 0.21 0.25 0.26 0.29 0.34 0.38 0.40 0.40 0.40 0.41 0.44 0.45 0.43 0.44 0.47 0.47 0.47
0.19 0.18 0.18 0.18 0.18 0.18 0.18 0.17 0.18 0.18 0.19 0.20 0.20 0.21 0.21 0.20 0.19 0.20 0.22 0.25 0.22 0.18 0.13 0.14 0.14 0.15 0.19 0.25 0.29 0.29 0.30 0.33 0.37 0.39 0.40 0.41 0.42 0.45 0.47 0.45 0.46 0.49 0.50 0.50
0.18 0.16 0.15 0.14 0.14 0.14 0.15 0.15 0.15 0.15 0.16 0.18 0.19 0.20 0.20 0.20 0.18 0.19 0.21 0.23 0.23 0.24 0.19 0.16 0.15 0.19 0.26 0.31 0.26 0.26 0.28 0.31 0.35 0.40 0.42 0.43 0.45 0.46 0.48 0.50 0.51 0.52 0.53 0.56
0.19 0.17 0.16 0.15 0.14 0.13 0.16 0.17 0.14 0.15 0.16 0.16 0.17 0.18 0.20 0.23 0.24 0.23 0.22 0.21 0.22 0.27 0.24 0.21 0.24 0.30 0.38 0.31 0.25 0.26 0.28 0.31 0.32 0.35 0.41 0.47 0.49 0.51 0.52 0.52 0.52 0.54 0.56 0.60
0.20 0.18 0.16 0.15 0.14 0.16 0.19 0.19 0.17 0.16 0.17 0.18 0.17 0.16 0.17 0.21 0.25 0.25 0.25 0.28 0.32 0.32 0.27 0.28 0.34 0.40 0.43 0.34 0.31 0.32 0.33 0.35 0.35 0.35 0.38 0.42 0.47 0.51 0.53 0.55 0.58 0.59 0.58 0.58
0.20 0.19 0.19 0.19 0.21 0.23 0.21 0.21 0.21 0.19 0.20 0.22 0.21 0.18 0.17 0.20 0.25 0.28 0.26 0.27 0.35 0.38 0.34 0.36 0.42 0.45 0.41 0.38 0.39 0.39 0.40 0.42 0.44 0.44 0.43 0.45 0.49 0.55 0.59 0.61 0.65 0.68 0.67 0.64
0.22 0.22 0.24 0.27 0.28 0.26 0.25 0.25 0.24 0.22 0.22 0.23 0.23 0.21 0.20 0.21 0.22 0.24 0.25 0.27 0.31 0.39 0.43 0.44 0.43 0.44 0.45 0.47 0.47 0.46 0.45 0.45 0.47 0.47 0.47 0.51 0.56 0.61 0.67 0.71 0.72 0.76 0.74 0.69
0.24 0.25 0.27 0.26 0.26 0.26 0.28 0.28 0.27 0.24 0.24 0.25 0.25 0.23 0.24 0.25 0.27 0.28 0.30 0.33 0.36 0.39 0.46 0.53 0.53 0.53 0.55 0.55 0.55 0.54 0.54 0.54 0.54 0.55 0.56 0.58 0.61 0.64 0.69 0.74 0.78 0.81 0.82 0.79